shenyang , China , ASIA

  • Tuesday
    January 22

    Sunny  Sunny

    41 °F  12 °F

    Southwest  Northwest

        

  • Wednesday
    January 23

    Sunny  Sunny

    32 °F  10 °F

    North  North

    3~4L    

  • Thursday
    January 24

    Sunny  Sunny

    32 °F  9 °F

    Northeast  Northeast

        

  • Friday
    January 25

    Cloudy  Cloudy

    28 °F  5 °F

    North  North

        

  • Saturday
    January 26

    Sunny  Sunny

    28 °F  9 °F

    North  Southeast

        

  • Sunday
    January 27

    Sunny  Sunny

    36 °F  12 °F

    Southwest  Northwest

        

  • Monday
    January 28

    Sunny  Cloudy

    32 °F  10 °F

    Northwest  No wind

        

Date   Weather Temperature Humidity Total_rain Visibility Wind
11:00 Sunny 38°F 60.8% 0mm 999.9km Southwest  2.2m/s
14:00 Sunny 42°F 53.6% 0mm 999.9km Northwest  2.0m/s
17:00 Sunny 37°F 59.2% 0mm 999.9km Northwest  1.0m/s
20:00 Sunny 26°F 66.7% 0mm 999.9km Northwest  1.0m/s
23:00 Sunny 21°F 76.6% 0mm 999.9km Northwest  1.5m/s
02:00 Sunny 17°F 75.5% 0mm 999.9km Northwest  2.1m/s
05:00 Sunny 13°F 74.4% 0mm 999.9km Northwest  1.7m/s
08:00 Sunny 13°F 50% 0mm 999.9km Northwest  1.9m/s
11:00 Sunny 31°F 38.1% 0mm 999.9km Northwest  2.5m/s
14:00 Sunny 32°F 48.5% 0mm 999.9km Northwest  2.5m/s
17:00 Sunny 26°F 56.5% 0mm 999.9km Northwest  1.5m/s
20:00 Sunny 21°F 67.5% 0mm 999.9km Northeast  0.9m/s
23:00 Sunny 15°F 75.7% 0mm 999.9km Northeast  1.2m/s
02:00 Sunny 12°F 74.7% 0mm 999.9km Northeast  1.4m/s
05:00 Sunny 11°F 61.7% 0mm 999.9km Northeast  1.3m/s
08:00 Sunny 14°F 50.3% 0mm 999.9km Northeast  1.3m/s
11:00 Sunny 27°F 39.9% 0mm 999.9km Northeast  1.3m/s
14:00 Sunny 32°F 49.5% 0mm 999.9km Northeast  2.1m/s
17:00 Sunny 26°F 55.9% 0mm 999.9km Northeast  1.1m/s
20:00 Sunny 18°F 62.3% 0mm 999.9km Northeast  0.3m/s
23:00 Sunny 15°F 73.2% 0mm 999.9km Northeast  1.0m/s
02:00 Sunny 13°F 74.4% 0mm 999.9km Northeast  1.2m/s
05:00 Sunny 9°F 77.8% 0mm 999.9km Northeast  1.5m/s
08:00 Sunny 11°F 76.4% 0mm 999.9km Northeast  1.4m/s
11:00 Cloudy 21°F 48.1% 0mm 999.9km Northwest  1.7m/s
14:00 Cloudy 28°F 57.2% 0mm 999.9km Northwest  3.0m/s
17:00 Cloudy 24°F 57.6% 0mm 999.9km Northwest  1.8m/s
20:00 Cloudy 21°F 69.2% 0mm 999.9km Northeast  1.3m/s
23:00 Cloudy 15°F 79.8% 0mm 999.9km Northeast  0.5m/s
02:00 Cloudy 9°F 81.3% 0mm 999.9km Northeast  1.1m/s
05:00 Cloudy 5°F 82.2% 0mm 999.9km Northeast  0.6m/s
08:00 Cloudy 10°F 81.3% 0mm 999.9km Northeast  0.8m/s
11:00 Sunny 20°F 47.4% 0mm 999.9km Northwest  1.1m/s
14:00 Sunny 28°F 54.5% 0mm 999.9km Northwest  1.7m/s
17:00 Sunny 22°F 61.6% 0mm 999.9km Southwest  1.2m/s
20:00 Sunny 12°F 66% 0mm 999.9km Southeast  0.4m/s
23:00 Sunny 11°F 70.4% 0mm 999.9km Southeast  0.9m/s
02:00 Sunny 10°F 81.3% 0mm 999.9km Southeast  0.6m/s
05:00 Sunny 9°F 67.3% 0mm 999.9km Southeast  1.2m/s
08:00 Sunny 12°F 53.7% 0mm 999.9km Southeast  1.2m/s
11:00 Sunny 29°F 49.2% 0mm 999.9km Southwest  2.5m/s
14:00 Sunny 35°F 63.9% 0mm 999.9km Southwest  2.2m/s
17:00 Sunny 31°F 64.4% 0mm 999.9km Southwest  0.6m/s
20:00 Sunny 21°F 73.7% 0mm 999.9km Northwest  1.2m/s
23:00 Sunny 19°F 82% 0mm 999.9km Northwest  1.4m/s
02:00 Sunny 18°F 78.4% 0mm 999.9km Northwest  1.1m/s
05:00 Sunny 13°F 70.5% 0mm 999.9km Northwest  1.3m/s
08:00 Sunny 13°F 53.5% 0mm 999.9km Southwest  0.4m/s
11:00 Sunny 27°F 52.1% 0mm 999.9km Northwest  2.3m/s
14:00 Sunny 31°F 56.6% 0mm 999.9km Southwest  1.9m/s
17:00 Sunny 32°F 61.1% 0mm 999.9km Southwest  1.3m/s
20:00 Sunny 19°F 72.2% 0mm 999.9km Southeast  0.9m/s
23:00 Sunny 13°F 84.2% 0mm 999.9km Southwest  0.2m/s
02:00 Sunny 12°F 82.8% 0mm 999.9km Southwest  1.2m/s
05:00 Cloudy 11°F 81.4% 0mm 999.9km Southwest  1.3m/s